GW0378 Weather Reports


time (UTC)temp
F
wind
direction
speed
knots
gust
knots
rain 1hr
in
rain 24hr
in
rain mn
in
humidity
%
barometer
mb
20260502164243 54 257 1.7 3.5 0.00 0.00 0.00 53 1019.9
20260502163738 53 90 2.6 3.5 0.00 0.00 0.00 51 1020.1
20260502163235 53 352 1.7 4.3 0.00 0.00 0.00 53 1019.9
20260502162732 53 338 2.6 4.3 0.00 0.00 0.00 53 1020.2
20260502162229 52 37 2.6 3.5 0.00 0.00 0.00 53 1020.0
20260502161726 52 353 0.9 4.3 0.00 0.00 0.00 53 1019.9
20260502161222 52 182 3.5 3.5 0.00 0.00 0.00 53 1020.2
20260502160721 52 289 0.0 2.6 0.00 0.00 0.00 55 1020.2
20260502160219 51 294 0.0 2.6 0.00 0.00 0.00 57 1020.2
20260502152143 50 342 0.9 1.7 0.00 0.00 0.00 59 1020.5
20260502151641 48 270 0.0 1.7 0.00 0.00 0.00 63 1020.3
20260502151138 48 21 0.0 1.7 0.00 0.00 0.00 62 1020.2
20260502150635 48 346 0.0 2.6 0.00 0.00 0.00 65 1020.6
20260502150131 47 174 0.0 2.6 0.00 0.00 0.00 64 1020.5
20260502130520 41 71 0.9 1.7 0.00 0.00 0.00 74 1020.3
20260502123503 41 106 3.5 4.3 0.00 0.00 0.00 73 1020.0
20260502123000 41 74 1.7 4.3 0.00 0.00 0.00 72 1020.0
20260502122456 41 97 3.5 4.3 0.00 0.00 0.00 72 1019.8
20260502121954 41 97 3.5 5.2 0.00 0.00 0.00 72 1019.9
20260502121451 42 101 2.6 4.3 0.00 0.00 0.00 71 1020.0
20260502120948 42 87 2.6 5.2 0.00 0.00 0.00 70 1019.8
20260502120444 42 110 3.5 5.2 0.00 0.00 0.00 71 1019.6
20260502115439 41 115 3.5 4.3 0.00 0.00 0.00 73 1019.8
20260502114935 40 113 3.5 4.3 0.00 0.00 0.00 74 1019.8
20260502114432 41 108 2.6 3.5 0.00 0.00 0.00 74 1019.9
20260502113929 40 109 1.7 2.6 0.00 0.00 0.00 75 1019.8
20260502113427 41 103 2.6 2.6 0.00 0.00 0.00 74 1019.9
20260502112925 41 71 2.6 3.5 0.00 0.00 0.00 73 1019.9
20260502112422 41 109 1.7 2.6 0.00 0.00 0.00 73 1019.9
20260502111920 42 118 2.6 3.5 0.00 0.00 0.00 72 1019.7
20260502111416 42 108 3.5 3.5 0.00 0.00 0.00 71 1019.8
20260502110914 42 103 2.6 2.6 0.00 0.00 0.00 71 1019.7
20260502110412 42 123 1.7 1.7 0.00 0.00 0.00 70 1019.7
20260502105909 43 105 0.0 1.7 0.00 0.00 0.00 68 1019.7
20260502105406 43 151 0.0 1.7 0.00 0.00 0.00 67 1019.6
20260502104904 45 90 0.9 3.5 0.00 0.00 0.00 64 1019.7
20260502104401 46 106 1.7 2.6 0.00 0.00 0.00 61 1019.6
20260502103858 45 45 1.7 4.3 0.00 0.00 0.00 64 1019.3
20260502103356 45 105 2.6 4.3 0.00 0.00 0.00 64 1019.6
20260502102852 45 101 2.6 4.3 0.00 0.00 0.00 64 1019.2
20260502102349 45 115 3.5 6.1 0.00 0.00 0.00 65 1019.6
20260502101846 45 101 6.1 6.1 0.00 0.00 0.00 66 1019.1
20260502101345 44 106 4.3 7.0 0.00 0.00 0.00 67 1019.5
20260502100843 44 123 3.5 6.1 0.00 0.00 0.00 68 1019.3
20260502100342 44 105 4.3 7.0 0.00 0.00 0.00 68 1019.1
20260502091315 45 127 1.7 1.7 0.00 0.00 0.00 65 1019.2
20260502090813 46 103 2.6 4.3 0.00 0.00 0.00 63 1019.0
20260502090309 45 110 3.5 3.5 0.00 0.00 0.00 65 1019.3
20260502071205 48 97 2.6 2.6 0.00 0.00 0.00 61 1018.8
20260502070703 48 115 1.7 2.6 0.00 0.00 0.00 61 1018.8
20260502070200 49 119 1.7 2.6 0.00 0.00 0.00 58 1018.8
20260502065659 49 97 2.6 2.6 0.00 0.00 0.00 58 1018.8
20260502065156 49 90 1.7 1.7 0.00 0.00 0.00 57 1018.7
20260502064655 49 86 2.6 2.6 0.00 0.00 0.00 57 1018.5
20260502064151 50 135 1.7 2.6 0.00 0.00 0.00 57 1018.7
20260502063649 49 103 1.7 2.6 0.00 0.00 0.00 59 1018.6
20260502063147 49 93 2.6 3.5 0.00 0.00 0.00 59 1018.1
20260502062643 50 99 2.6 2.6 0.00 0.00 0.00 58 1018.5
20260502062141 49 115 1.7 2.6 0.00 0.00 0.00 60 1018.3
20260502061639 50 130 2.6 2.6 0.00 0.00 0.00 57 1018.6
20260502061137 51 99 2.6 3.5 0.00 0.00 0.00 55 1018.1
20260502060636 50 139 1.7 2.6 0.00 0.00 0.00 57 1018.1
20260502060133 50 108 2.6 3.5 0.00 0.00 0.00 55 1017.9
20260502055631 51 93 2.6 6.1 0.00 0.00 0.00 53 1018.1
20260502055129 52 115 2.6 7.0 0.00 0.00 0.00 52 1018.2
20260502054628 51 90 3.5 5.2 0.00 0.00 0.00 53 1018.0
20260502054125 51 77 2.6 4.3 0.00 0.00 0.00 53 1017.8
20260502053622 51 105 3.5 4.3 0.00 0.00 0.00 53 1018.1
20260502053119 51 97 2.6 3.5 0.00 0.00 0.00 54 1018.0
20260502052617 51 117 0.9 2.6 0.00 0.00 0.00 56 1017.9
20260502052115 52 104 2.6 2.6 0.00 0.00 0.00 52 1018.0
20260502051613 52 77 2.6 4.3 0.00 0.00 0.00 50 1017.9
20260502051111 52 103 3.5 3.5 0.00 0.00 0.00 52 1017.9
20260502050607 53 94 2.6 3.5 0.00 0.00 0.00 49 1017.7
20260502050104 53 145 0.9 1.7 0.00 0.00 0.00 50 1017.9
20260502045600 53 132 1.7 2.6 0.00 0.00 0.00 51 1017.7
20260502045058 53 113 2.6 3.5 0.00 0.00 0.00 49 1017.7
20260502044554 53 127 2.6 3.5 0.00 0.00 0.00 49 1017.7
20260502044051 53 113 2.6 3.5 0.00 0.00 0.00 48 1017.8
20260502043548 54 106 1.7 3.5 0.00 0.00 0.00 47 1017.8
20260502043044 54 134 3.5 4.3 0.00 0.00 0.00 48 1017.7
20260502042539 55 96 4.3 7.0 0.00 0.00 0.00 45 1017.6
20260502042037 55 102 7.0 7.8 0.00 0.00 0.00 45 1017.4
20260502041535 55 106 4.3 6.1 0.00 0.00 0.00 46 1017.5
20260502041031 55 110 3.5 8.7 0.00 0.00 0.00 46 1017.6
20260502040528 54 111 6.1 9.6 0.00 0.00 0.00 45 1017.6
20260502040025 55 83 3.5 4.3 0.00 0.00 0.00 47 1017.6
20260502035521 56 87 2.6 4.3 0.00 0.00 0.00 45 1017.4
20260502035019 56 108 4.3 4.3 0.00 0.00 0.00 45 1017.4
20260502034516 56 95 4.3 5.2 0.00 0.00 0.00 44 1017.4
20260502034015 57 69 2.6 5.2 0.00 0.00 0.00 43 1017.2
20260502033513 56 90 3.5 5.2 0.00 0.00 0.00 44 1017.2
20260502033010 57 105 3.5 9.6 0.00 0.00 0.00 45 1017.2
20260502032505 58 97 2.6 6.1 0.00 0.00 0.00 42 1017.1
20260502032003 58 98 4.3 5.2 0.00 0.00 0.00 43 1016.9
20260502031500 59 117 4.3 7.0 0.00 0.00 0.00 42 1017.0
20260502030958 60 103 5.2 7.8 0.00 0.00 0.00 40 1016.8
20260502030456 59 112 4.3 6.1 0.00 0.00 0.00 40 1016.9
20260502025954 60 74 2.6 6.1 0.00 0.00 0.00 42 1016.7
20260502025451 61 119 4.3 6.1 0.00 0.00 0.00 40 1016.7
20260502024949 61 114 4.3 6.1 0.00 0.00 0.00 39 1016.7
20260502024447 61 124 3.5 5.2 0.00 0.00 0.00 40 1016.6
20260502023945 62 110 3.5 4.3 0.00 0.00 0.00 41 1016.6
20260502023442 63 105 4.3 5.2 0.00 0.00 0.00 38 1016.6
20260502022939 62 106 2.6 2.6 0.00 0.00 0.00 40 1016.7
20260502022435 63 118 2.6 3.5 0.00 0.00 0.00 38 1016.6
20260502021932 64 83 2.6 3.5 0.00 0.00 0.00 37 1016.5
20260502021430 66 106 2.6 2.6 0.00 0.00 0.00 35 1016.1
20260502020927 68 99 0.0 0.9 0.00 0.00 0.00 32 1016.4
20260502020425 69 278 0.0 0.0 0.00 0.00 0.00 31 1016.2
20260502015921 71 278 0.0 0.0 0.00 0.00 0.00 30 1016.5
20260502015419 71 289 0.9 2.6 0.00 0.00 0.00 27 1016.5
20260502014915 71 289 2.6 4.3 0.00 0.00 0.00 26 1016.1
20260502014413 72 270 1.7 3.5 0.00 0.00 0.00 26 1016.5
20260502013909 72 252 2.6 2.6 0.00 0.00 0.00 26 1016.6
20260502013404 72 270 1.7 2.6 0.00 0.00 0.00 26 1016.5
20260502012901 73 296 2.6 3.5 0.00 0.00 0.00 26 1016.6
20260502012359 73 281 2.6 3.5 0.00 0.00 0.00 25 1016.6
20260502011856 74 289 2.6 2.6 0.00 0.00 0.00 25 1016.6
20260502011352 74 260 0.0 2.6 0.00 0.00 0.00 24 1016.6
20260502010849 74 286 0.0 3.5 0.00 0.00 0.00 24 1016.7
20260502010346 74 261 0.0 1.7 0.00 0.00 0.00 25 1016.7
20260502005843 74 335 3.5 3.5 0.00 0.00 0.00 25 1016.7
20260502005341 74 346 2.6 2.6 0.00 0.00 0.00 27 1016.7
20260502004838 73 345 1.7 4.3 0.00 0.00 0.00 25 1016.6
20260502004333 74 279 1.7 3.5 0.00 0.00 0.00 27 1016.5
20260502003832 74 315 3.5 4.3 0.00 0.00 0.00 26 1016.9
20260502003328 74 225 1.7 2.6 0.00 0.00 0.00 26 1016.6
20260502002825 74 289 1.7 3.5 0.00 0.00 0.00 27 1016.7
20260502002322 73 123 0.0 4.3 0.00 0.00 0.00 25 1016.8
20260502001819 73 326 2.6 3.5 0.00 0.00 0.00 25 1016.9
20260502001317 74 191 3.5 4.3 0.00 0.00 0.00 24 1016.7
20260502000814 75 232 3.5 3.5 0.00 0.00 0.00 25 1016.8
20260502000312 74 355 0.0 1.7 0.00 0.00 0.00 28 1016.7
20260501235808 73 77 1.7 3.5 0.00 0.00 0.00 25 1016.8
20260501235305 73 283 0.9 2.6 0.00 0.00 0.00 24 1016.9
20260501234759 73 352 0.0 3.5 0.00 0.00 0.00 26 1016.9
20260501234257 73 3 1.7 4.3 0.00 0.00 0.00 26 1017.1
20260501233755 72 324 1.7 5.2 0.00 0.00 0.00 26 1017.1
20260501233252 73 303 2.6 4.3 0.00 0.00 0.00 27 1017.1
20260501232748 73 353 2.6 5.2 0.00 0.00 0.00 26 1017.0
20260501232245 74 276 1.7 3.5 0.00 0.00 0.00 27 1017.2
20260501231743 73 321 2.6 4.3 0.00 0.00 0.00 28 1017.2
20260501231241 72 350 2.6 7.8 0.00 0.00 0.00 26 1017.1
20260501230739 73 0 0.0 5.2 0.00 0.00 0.00 27 1016.9
20260501230237 71 262 4.3 8.7 0.00 0.00 0.00 26 1017.4
20260501225734 73 335 2.6 4.3 0.00 0.00 0.00 27 1017.4
20260501225231 72 354 0.0 4.3 0.00 0.00 0.00 27 1017.5
20260501224727 72 350 2.6 4.3 0.00 0.00 0.00 26 1017.4
20260501224225 72 333 3.5 4.3 0.00 0.00 0.00 27 1017.6
20260501223721 73 293 3.5 4.3 0.00 0.00 0.00 28 1017.5
20260501223218 73 283 3.5 4.3 0.00 0.00 0.00 28 1017.8
20260501222714 71 13 2.6 7.0 0.00 0.00 0.00 26 1017.9
20260501222211 72 327 6.1 6.1 0.00 0.00 0.00 27 1017.8
20260501221708 71 17 1.7 6.1 0.00 0.00 0.00 29 1017.7
20260501221205 71 11 2.6 4.3 0.00 0.00 0.00 27 1017.8
20260501220703 70 51 4.3 5.2 0.00 0.00 0.00 26 1018.0
20260501220200 72 339 2.6 4.3 0.00 0.00 0.00 28 1018.0
20260501215657 71 57 1.7 2.6 0.00 0.00 0.00 27 1018.1
20260501215152 71 78 2.6 2.6 0.00 0.00 0.00 29 1018.1
20260501214647 69 98 0.0 4.3 0.00 0.00 0.00 27 1018.3
20260501214143 70 330 4.3 7.8 0.00 0.00 0.00 28 1018.3
20260501213640 69 96 0.9 7.8 0.00 0.00 0.00 28 1018.5
20260501213136 70 338 3.5 8.7 0.00 0.00 0.00 28 1018.6
20260501212633 70 284 2.6 3.5 0.00 0.00 0.00 29 1018.3
20260501212129 69 51 2.6 5.2 0.00 0.00 0.00 28 1018.8
20260501211626 70 80 2.6 4.3 0.00 0.00 0.00 28 1018.9
20260501211124 68 18 6.1 7.8 0.00 0.00 0.00 28 1018.8
20260501210620 68 296 2.6 6.1 0.00 0.00 0.00 29 1018.7
20260501210117 69 305 5.2 7.8 0.00 0.00 0.00 29 1018.9
20260501205613 70 319 1.7 2.6 0.00 0.00 0.00 30 1018.9
20260501205111 69 94 2.6 2.6 0.00 0.00 0.00 30 1019.1
20260501204607 68 198 0.9 4.3 0.00 0.00 0.00 28 1019.3
20260501204103 68 80 1.7 4.3 0.00 0.00 0.00 28 1019.2
20260501203600 67 222 2.6 4.3 0.00 0.00 0.00 32 1019.3
20260501203058 68 234 6.1 6.1 0.00 0.00 0.00 30 1019.5
20260501202554 68 270 1.7 2.6 0.00 0.00 0.00 31 1019.5
20260501202051 68 66 0.9 4.3 0.00 0.00 0.00 29 1019.5
20260501201548 66 270 3.5 5.2 0.00 0.00 0.00 34 1019.7
20260501201044 66 202 4.3 8.7 0.00 0.00 0.00 30 1019.5
20260501200542 66 286 1.7 6.1 0.00 0.00 0.00 30 1019.8
20260501200039 66 217 2.6 7.8 0.00 0.00 0.00 30 1019.6
20260501195536 66 261 3.5 3.5 0.00 0.00 0.00 30 1019.6
20260501195032 66 285 2.6 4.3 0.00 0.00 0.00 30 1019.9
20260501194527 65 309 2.6 5.2 0.00 0.00 0.00 28 1020.0
20260501194023 65 274 4.3 6.1 0.00 0.00 0.00 38 1020.2
20260501193521 64 281 2.6 4.3 0.00 0.00 0.00 39 1020.1
20260501193020 64 54 2.6 4.3 0.00 0.00 0.00 38 1020.3
20260501192516 63 253 3.5 4.3 0.00 0.00 0.00 40 1020.2
20260501192014 63 270 2.6 4.3 0.00 0.00 0.00 41 1020.2
20260501191511 63 358 3.5 3.5 0.00 0.00 0.00 42 1020.5
20260501191008 63 23 0.9 3.5 0.00 0.00 0.00 41 1020.6
20260501190503 62 61 2.6 4.3 0.00 0.00 0.00 41 1020.5
20260501185959 62 0 1.7 3.5 0.00 0.00 0.00 42 1020.8
20260501185455 62 37 1.7 3.5 0.00 0.00 0.00 42 1020.8
20260501184951 60 286 2.6 4.3 0.00 0.00 0.00 44 1020.9
20260501184448 60 229 2.6 4.3 0.00 0.00 0.00 47 1021.0
20260501183942 60 270 0.0 4.3 0.00 0.00 0.00 45 1020.9
20260501183440 60 338 2.6 3.5 0.00 0.00 0.00 44 1021.1
20260501182936 59 49 1.7 4.3 0.00 0.00 0.00 45 1021.2
20260501182433 59 345 2.6 4.3 0.00 0.00 0.00 45 1021.2
20260501181930 59 0 2.6 4.3 0.00 0.00 0.00 44 1021.6
20260501181427 58 276 4.3 4.3 0.00 0.00 0.00 47 1021.3
20260501180924 58 278 4.3 5.2 0.00 0.00 0.00 46 1021.3
20260501180421 58 273 2.6 3.5 0.00 0.00 0.00 48 1021.7
20260501175917 57 292 1.7 3.5 0.00 0.00 0.00 47 1021.6
20260501175414 57 319 4.3 4.3 0.00 0.00 0.00 46 1021.6
20260501174911 57 40 4.3 4.3 0.00 0.00 0.00 49 1021.8
20260501174409 56 15 4.3 4.3 0.00 0.00 0.00 48 1021.8
20260501173906 55 348 1.7 5.2 0.00 0.00 0.00 49 1021.8
20260501173404 56 300 2.6 3.5 0.00 0.00 0.00 50 1022.0
20260501172859 55 270 2.6 3.5 0.00 0.00 0.00 49 1022.1
20260501172354 55 350 1.7 3.5 0.00 0.00 0.00 48 1022.3
20260501171850 53 301 0.0 3.5 0.00 0.00 0.00 50 1022.3
20260501171347 53 332 1.7 5.2 0.00 0.00 0.00 51 1022.2
20260501170843 54 66 1.7 2.6 0.00 0.00 0.00 50 1022.1
20260501170341 54 276 0.9 1.7 0.00 0.00 0.00 52 1022.3